{"data":{"norad_id":48784,"epoch":"2026-09-19T22:17:56.279040Z","epoch_age_seconds":67343,"freshness":"FRESH","line1":"1 48784U 21045T   26262.92912360  .00001721  00000+0  45346-2 0  9997","line2":"2 48784  87.8981 240.2924 0002134  92.3671 267.7704 13.15565161256836","mean_motion":13.15565161,"eccentricity":0.0002134,"inclination_deg":87.8981,"raan_deg":240.2924,"arg_perigee_deg":92.3671,"mean_anomaly_deg":267.7704,"bstar":0.0045346,"rev_number":25683,"period_min":109.45866025408,"perigee_km":1200.0894234254,"apogee_km":1203.3245008285,"semimajor_km":7579.8439621269,"source":"CELESTRAK","updated_at":"2026-09-20T09:00:44.618589Z"}}